Home > Weather > Fairfax > Past weeks

Flag for USA Weather for the Past 2 Weeks in Fairfax, Virginia, USA

Now
55 °F

Light rain. Mostly cloudy.


Feels Like: 53 °F
Forecast: 49 / 62 °F
Wind: 7 mph from Southeast

Location: Washington-Dulles International Airport

Current Time: Apr 30, 2016 at 7:07:15 PM

Latest Report: Apr 30, 2016 at 5:52 PM


Visibility: 10 mi

Pressure: 30.20 "Hg

Humidity: 74%

Dew Point: 47 °F

Location of FairfaxLocation

Historic Weather in Fairfax — Graph

°F

Fairfax Temperature Yesterday

Maximum temperature yesterday: 55 °F (at 4:52 PM)
Minimum temperature yesterday: 46 °F (at 2:52 AM)
Average temperature yesterday: 50 °F

High & Low Weather Summary for the Past Weeks

 TemperatureHumidityPressure
High84 °F (Apr 26, 2:52 PM)97% (Apr 23, 1:52 AM)30.47 "Hg (Apr 23, 1:52 AM)
Low35 °F (Apr 16, 6:52 AM)17% (Apr 20, 2:52 PM)29.69 "Hg (Apr 26, 3:52 PM)
Average60 °F60%30.07 "Hg
* Reported Apr 15 4:52 PM — Apr 30 4:52 PM, Fairfax, Weather by CustomWeather, © 2016

Note: Actual official high and low records may vary slightly from our data, if they occured in-between our weather recording intervals... More about our weather records

Advertising

Fairfax Weather History for the Previous 24 Hours

Scroll right to see more
 ConditionsComfort  
Time TempWeatherWind HumidityBarometerVisibility
4:52 PM
Sat, Apr 30
56 °FOvercast.7 mph72%30.19 "Hg10 mi
3:52 PM55 °FOvercast.6 mph74%30.19 "Hg10 mi
2:52 PM55 °FOvercast.7 mph74%30.20 "Hg9 mi
1:52 PM55 °FMore clouds than sun.8 mph74%30.20 "Hg9 mi
12:52 PM54 °FOvercast.3 mph77%30.20 "Hg10 mi
11:52 AM54 °FOvercast.9 mph80%30.20 "Hg9 mi
10:52 AM54 °FOvercast.6 mph77%30.19 "Hg10 mi
9:52 AM52 °FFog.7 mph86%30.20 "Hg5 mi
8:52 AM51 °FFog.5 mph92%30.19 "Hg4 mi
7:52 AM51 °FFog.5 mph92%30.19 "Hg3 mi
6:52 AM51 °FFog.5 mph92%30.16 "Hg4 mi
5:52 AM52 °FFog.No wind89%30.14 "Hg5 mi
4:52 AM52 °FFog.No wind89%30.14 "Hg6 mi
4:01 AM51 °FOvercast.No wind92%30.13 "Hg7 mi
3:52 AM52 °FLow clouds.No wind89%30.13 "Hg7 mi
2:52 AM52 °FMostly cloudy.No wind89%30.12 "Hg7 mi
2:01 AM52 °FLow clouds.3 mph89%30.12 "Hg8 mi
12:52 AM52 °FLow clouds.3 mph89%30.12 "Hg7 mi
11:52 PM
Fri, Apr 29
52 °FLow clouds.3 mph89%30.11 "Hg7 mi
10:52 PM52 °FLow clouds.3 mph89%30.09 "Hg8 mi
9:52 PM53 °FOvercast.6 mph86%30.10 "Hg8 mi
8:52 PM53 °FLight rain. Overcast.5 mph86%30.08 "Hg8 mi
7:52 PM54 °FDrizzle. Overcast.7 mph83%30.05 "Hg8 mi
Weather by CustomWeather, © 2016

See weather overviewHow to use our weather pages